Simultaneous Nadir Overpasses (SNOs) Predictions

Prediction of SNOs between AQUA and METOP-A Satellite Orbit:

Table of predicted SNOs for the next 14.0 days since TLE Epoch: 5/20/2016
Index Date (AQUA) Time (AQUA) Lat,Lon (AQUA) SZA (AQUA ) Date (METOP-A) Time (METOP-A) Lat,Lon (METOP-A) SZA (METOP-A ) Distance(km) Time Diff (sec)
1 05/22/2016 14:41:36 -73.84, 133.85 126.73 05/22/2016 14:40:39 -73.83, 133.78 126.73 2.75 57
2 05/22/2016 15:31:05 73.92, -58.69 53.36 05/22/2016 15:31:17 73.94, -58.63 53.37 2.51 12
3 05/22/2016 16:20:40 -74.41, 107.82 126.13 05/22/2016 16:21:48 -74.44, 109.98 126.16 64.76 68
4 05/25/2016 10:15:46 -73.88,-159.78 127.20 05/25/2016 10:15:01 -73.86,-159.74 127.22 2.91 45
5 05/25/2016 11:05:14 73.91, 7.79 52.83 05/25/2016 11:05:40 73.91, 7.72 52.83 2.17 26
6 05/28/2016 05:49:55 -73.88, -93.31 127.67 05/28/2016 05:49:23 -73.88, -93.28 127.66 1.00 32
7 05/28/2016 06:39:24 73.96, 74.14 52.42 05/28/2016 06:40:02 73.93, 74.18 52.38 3.41 38
8 05/31/2016 00:34:23 73.13, 167.08 51.14 05/31/2016 00:33:18 73.12, 164.07 51.23 97.12 65
9 05/31/2016 01:24:03 -73.89, -26.88 128.08 05/31/2016 01:23:44 -73.90, -26.82 128.06 2.00 19
10 05/31/2016 02:13:32 73.98, 140.57 52.01 05/31/2016 02:14:23 73.95, 140.63 51.98 3.27 51
11 06/02/2016 20:08:42 73.68,-127.61 51.35 06/02/2016 20:07:30 73.64,-128.36 51.34 24.23 72
12 06/02/2016 20:58:12 -73.91, 39.53 128.42 06/02/2016 20:58:06 -73.92, 39.62 128.41 2.74 6
13 06/02/2016 21:47:40 73.95,-152.91 51.62 06/02/2016 21:48:45 73.97,-152.93 51.63 1.88 65




NCC Satellite Simultaneous Nadir Overpasses (SNOs) Prediction Service
